| time (UTC) | temp F | wind direction | speed MPH | gust MPH | rain 1hr in | rain 24hr in | rain mn in | humidity % | barometer mb |
| 20260510163928 | 65 | 279 | 2.0 | 2.0 | 0.00 | 0.00 | 0.00 | 48 | 1006.8 |
| 20260510163425 | 65 | 286 | 1.0 | 3.0 | 0.00 | 0.00 | 0.00 | 47 | 1007.0 |
| 20260510162919 | 64 | 72 | 2.0 | 3.0 | 0.00 | 0.00 | 0.00 | 50 | 1006.9 |
| 20260510162417 | 64 | 247 | 1.0 | 2.0 | 0.00 | 0.00 | 0.00 | 52 | 1006.9 |
| 20260510161913 | 65 | 79 | 4.0 | 7.0 | 0.00 | 0.00 | 0.00 | 47 | 1007.1 |
| 20260510161409 | 65 | 102 | 3.0 | 4.0 | 0.00 | 0.00 | 0.00 | 48 | 1006.9 |
| 20260510160906 | 65 | 87 | 1.0 | 1.0 | 0.00 | 0.00 | 0.00 | 50 | 1006.9 |
| 20260510160403 | 65 | 258 | 1.0 | 1.0 | 0.00 | 0.00 | 0.00 | 51 | 1006.6 |
| 20260510155901 | 64 | 290 | 2.0 | 2.0 | 0.00 | 0.00 | 0.00 | 48 | 1006.9 |
| 20260510155359 | 65 | 54 | 1.0 | 3.0 | 0.00 | 0.00 | 0.00 | 47 | 1006.9 |
| 20260510154854 | 64 | 279 | 0.0 | 1.0 | 0.00 | 0.00 | 0.00 | 47 | 1006.6 |
| 20260510154351 | 64 | 72 | 1.0 | 2.0 | 0.00 | 0.00 | 0.00 | 47 | 1006.5 |
| 20260510153845 | 64 | 282 | 1.0 | 1.0 | 0.00 | 0.00 | 0.00 | 46 | 1006.6 |
| 20260510153341 | 62 | 274 | 0.0 | 1.0 | 0.00 | 0.00 | 0.00 | 54 | 1006.4 |
| 20260510152838 | 63 | 91 | 2.0 | 6.0 | 0.00 | 0.00 | 0.00 | 53 | 1006.4 |
| 20260510152335 | 63 | 271 | 1.0 | 1.0 | 0.00 | 0.00 | 0.00 | 52 | 1006.3 |
| 20260510151831 | 64 | 97 | 0.0 | 1.0 | 0.00 | 0.00 | 0.00 | 53 | 1006.2 |
| 20260510151329 | 64 | 311 | 1.0 | 2.0 | 0.00 | 0.00 | 0.00 | 54 | 1006.2 |
| 20260510150825 | 64 | 275 | 1.0 | 1.0 | 0.00 | 0.00 | 0.00 | 55 | 1006.1 |
| 20260510150321 | 62 | 19 | 1.0 | 2.0 | 0.00 | 0.00 | 0.00 | 54 | 1006.2 |
| 20260510145817 | 62 | 336 | 1.0 | 1.0 | 0.00 | 0.00 | 0.00 | 54 | 1006.0 |
| 20260510145314 | 62 | 27 | 0.0 | 1.0 | 0.00 | 0.00 | 0.00 | 55 | 1006.0 |
| 20260510144810 | 62 | 55 | 2.0 | 3.0 | 0.00 | 0.00 | 0.00 | 54 | 1006.0 |
| 20260510144307 | 63 | 32 | 2.0 | 4.0 | 0.00 | 0.00 | 0.00 | 54 | 1005.9 |
| 20260510143807 | 62 | 292 | 0.0 | 0.0 | 0.00 | 0.00 | 0.00 | 55 | 1005.7 |
| 20260510143303 | 62 | 296 | 2.0 | 2.0 | 0.00 | 0.00 | 0.00 | 54 | 1005.7 |
| 20260510142800 | 60 | 51 | 0.0 | 0.0 | 0.00 | 0.00 | 0.00 | 61 | 1005.7 |
| 20260510142256 | 60 | 296 | 1.0 | 1.0 | 0.00 | 0.00 | 0.00 | 55 | 1005.4 |
| 20260510141754 | 59 | 307 | 0.0 | 1.0 | 0.00 | 0.00 | 0.00 | 59 | 1005.4 |
| 20260510141252 | 58 | 254 | 1.0 | 1.0 | 0.00 | 0.00 | 0.00 | 57 | 1005.6 |
| 20260510140749 | 60 | 347 | 1.0 | 1.0 | 0.00 | 0.00 | 0.00 | 57 | 1005.5 |
| 20260510140244 | 61 | 265 | 0.0 | 1.0 | 0.00 | 0.00 | 0.00 | 55 | 1005.3 |
| 20260510135738 | 62 | 306 | 0.0 | 0.0 | 0.00 | 0.00 | 0.00 | 56 | 1005.5 |
| 20260510135234 | 60 | 219 | 2.0 | 2.0 | 0.00 | 0.00 | 0.00 | 58 | 1005.4 |
| 20260510134732 | 58 | 31 | 2.0 | 2.0 | 0.00 | 0.00 | 0.00 | 60 | 1005.6 |
| 20260510134229 | 56 | 58 | 1.0 | 1.0 | 0.00 | 0.00 | 0.00 | 61 | 1005.3 |
| 20260510133725 | 56 | 283 | 1.0 | 1.0 | 0.00 | 0.00 | 0.00 | 62 | 1005.3 |
| 20260510133221 | 56 | 77 | 2.0 | 3.0 | 0.00 | 0.00 | 0.00 | 61 | 1005.3 |
| 20260510132717 | 57 | 144 | 2.0 | 3.0 | 0.00 | 0.00 | 0.00 | 60 | 1005.1 |
| 20260510132214 | 56 | 61 | 2.0 | 3.0 | 0.00 | 0.00 | 0.00 | 63 | 1005.1 |
| 20260510131711 | 57 | 246 | 1.0 | 1.0 | 0.00 | 0.00 | 0.00 | 64 | 1005.0 |
| 20260510131209 | 56 | 244 | 0.0 | 0.0 | 0.00 | 0.00 | 0.00 | 67 | 1004.9 |
| 20260510130705 | 56 | 293 | 0.0 | 1.0 | 0.00 | 0.00 | 0.00 | 66 | 1005.0 |
| 20260510130203 | 55 | 2 | 0.0 | 0.0 | 0.00 | 0.00 | 0.00 | 64 | 1004.9 |
| 20260510125658 | 55 | 330 | 1.0 | 1.0 | 0.00 | 0.00 | 0.00 | 65 | 1005.0 |
| 20260510125154 | 54 | 330 | 1.0 | 1.0 | 0.00 | 0.00 | 0.00 | 68 | 1004.9 |
| 20260510124651 | 54 | 289 | 0.0 | 0.0 | 0.00 | 0.00 | 0.00 | 69 | 1004.8 |
| 20260510124148 | 54 | 107 | 2.0 | 2.0 | 0.00 | 0.00 | 0.00 | 70 | 1004.4 |
| 20260510123643 | 54 | 4 | 0.0 | 1.0 | 0.00 | 0.00 | 0.00 | 69 | 1004.6 |
| 20260510123140 | 54 | 243 | 1.0 | 2.0 | 0.00 | 0.00 | 0.00 | 70 | 1004.4 |
| 20260510122636 | 53 | 48 | 1.0 | 2.0 | 0.00 | 0.00 | 0.00 | 68 | 1004.3 |
| 20260510122132 | 53 | 265 | 0.0 | 0.0 | 0.00 | 0.00 | 0.00 | 69 | 1004.4 |
| 20260510121629 | 53 | 302 | 0.0 | 1.0 | 0.00 | 0.00 | 0.00 | 68 | 1004.4 |
| 20260510121126 | 53 | 301 | 0.0 | 0.0 | 0.00 | 0.00 | 0.00 | 68 | 1004.3 |
| 20260510120624 | 53 | 318 | 1.0 | 1.0 | 0.00 | 0.00 | 0.00 | 68 | 1004.3 |
| 20260510120119 | 53 | 308 | 0.0 | 1.0 | 0.00 | 0.00 | 0.00 | 70 | 1004.1 |
| 20260510115616 | 53 | 291 | 1.0 | 1.0 | 0.00 | 0.00 | 0.00 | 69 | 1004.1 |
| 20260510115114 | 53 | 293 | 0.0 | 0.0 | 0.00 | 0.00 | 0.00 | 72 | 1004.0 |
| 20260510114609 | 53 | 281 | 0.0 | 0.0 | 0.00 | 0.00 | 0.00 | 72 | 1003.8 |
| 20260510114105 | 53 | 306 | 0.0 | 1.0 | 0.00 | 0.00 | 0.00 | 73 | 1003.8 |
| 20260510113600 | 53 | 355 | 0.0 | 0.0 | 0.00 | 0.00 | 0.00 | 76 | 1003.9 |
| 20260510113059 | 53 | 265 | 0.0 | 0.0 | 0.00 | 0.00 | 0.00 | 75 | 1003.9 |
| 20260510112555 | 53 | 284 | 0.0 | 1.0 | 0.00 | 0.00 | 0.00 | 75 | 1003.6 |
| 20260510112051 | 54 | 339 | 0.0 | 1.0 | 0.00 | 0.00 | 0.00 | 73 | 1003.4 |
| 20260510111548 | 54 | 54 | 2.0 | 3.0 | 0.00 | 0.00 | 0.00 | 72 | 1003.5 |
| 20260510111044 | 54 | 290 | 1.0 | 1.0 | 0.00 | 0.00 | 0.00 | 72 | 1003.5 |
| 20260510110540 | 54 | 50 | 2.0 | 2.0 | 0.00 | 0.00 | 0.00 | 72 | 1003.3 |
| 20260510110037 | 54 | 290 | 0.0 | 1.0 | 0.00 | 0.00 | 0.00 | 73 | 1003.4 |
| 20260510105532 | 54 | 296 | 1.0 | 1.0 | 0.00 | 0.00 | 0.00 | 72 | 1003.2 |
| 20260510105027 | 54 | 2 | 2.0 | 2.0 | 0.00 | 0.00 | 0.00 | 72 | 1003.0 |
| 20260510104524 | 54 | 277 | 0.0 | 0.0 | 0.00 | 0.00 | 0.00 | 75 | 1003.0 |
| 20260510104020 | 55 | 270 | 1.0 | 1.0 | 0.00 | 0.00 | 0.00 | 76 | 1002.8 |
| 20260510103518 | 55 | 44 | 1.0 | 1.0 | 0.00 | 0.00 | 0.00 | 77 | 1002.7 |
| 20260510103014 | 55 | 275 | 0.0 | 0.0 | 0.00 | 0.00 | 0.00 | 78 | 1002.5 |
| 20260510102510 | 55 | 292 | 0.0 | 0.0 | 0.00 | 0.00 | 0.00 | 78 | 1002.6 |
| 20260510102006 | 55 | 286 | 1.0 | 2.0 | 0.00 | 0.00 | 0.00 | 77 | 1002.4 |
| 20260510101504 | 55 | 211 | 0.0 | 1.0 | 0.00 | 0.00 | 0.00 | 76 | 1002.2 |
| 20260510101002 | 55 | 326 | 1.0 | 1.0 | 0.00 | 0.00 | 0.00 | 76 | 1002.2 |
| 20260510100458 | 55 | 103 | 1.0 | 2.0 | 0.00 | 0.00 | 0.00 | 77 | 1001.8 |
| 20260510095954 | 55 | 310 | 0.0 | 1.0 | 0.00 | 0.00 | 0.00 | 77 | 1001.8 |
| 20260510095450 | 55 | 324 | 0.0 | 0.0 | 0.00 | 0.00 | 0.00 | 77 | 1001.9 |
| 20260510094949 | 55 | 245 | 1.0 | 1.0 | 0.00 | 0.00 | 0.00 | 76 | 1001.9 |
| 20260510094444 | 55 | 325 | 0.0 | 0.0 | 0.00 | 0.00 | 0.00 | 76 | 1001.9 |
| 20260510093941 | 55 | 282 | 0.0 | 1.0 | 0.00 | 0.00 | 0.00 | 75 | 1001.7 |
| 20260510093435 | 55 | 312 | 0.0 | 0.0 | 0.00 | 0.00 | 0.00 | 78 | 1001.6 |
| 20260510092927 | 56 | 299 | 0.0 | 0.0 | 0.00 | 0.00 | 0.00 | 78 | 1001.7 |
| 20260510092424 | 56 | 287 | 1.0 | 1.0 | 0.00 | 0.00 | 0.00 | 78 | 1001.3 |
| 20260510091918 | 56 | 270 | 0.0 | 1.0 | 0.00 | 0.00 | 0.00 | 79 | 1001.7 |
| 20260510091416 | 56 | 252 | 0.0 | 1.0 | 0.00 | 0.00 | 0.00 | 79 | 1001.2 |
| 20260510090913 | 56 | 273 | 0.0 | 0.0 | 0.00 | 0.00 | 0.00 | 79 | 1001.1 |
| 20260510090409 | 57 | 294 | 0.0 | 1.0 | 0.00 | 0.00 | 0.00 | 79 | 1001.1 |
| 20260510085905 | 57 | 301 | 2.0 | 3.0 | 0.00 | 0.00 | 0.00 | 78 | 1001.0 |
| 20260510085400 | 57 | 279 | 1.0 | 1.0 | 0.00 | 0.00 | 0.00 | 78 | 1000.9 |
| 20260510084855 | 57 | 272 | 1.0 | 2.0 | 0.00 | 0.00 | 0.00 | 79 | 1000.9 |
| 20260510084354 | 57 | 278 | 0.0 | 0.0 | 0.00 | 0.00 | 0.00 | 79 | 1000.5 |
| 20260510083850 | 57 | 292 | 0.0 | 0.0 | 0.00 | 0.00 | 0.00 | 80 | 1000.3 |
| 20260510083346 | 58 | 303 | 2.0 | 2.0 | 0.00 | 0.00 | 0.00 | 79 | 1000.1 |
| 20260510082842 | 58 | 282 | 1.0 | 1.0 | 0.00 | 0.00 | 0.00 | 79 | 1000.4 |
| 20260510082339 | 57 | 280 | 1.0 | 1.0 | 0.00 | 0.00 | 0.00 | 78 | 1000.1 |
| 20260510081832 | 57 | 249 | 1.0 | 2.0 | 0.00 | 0.00 | 0.00 | 79 | 1000.0 |
| 20260510081329 | 57 | 277 | 1.0 | 1.0 | 0.00 | 0.00 | 0.00 | 78 | 1000.3 |
| 20260510080825 | 58 | 319 | 1.0 | 1.0 | 0.00 | 0.00 | 0.00 | 77 | 999.9 |
| 20260510080319 | 57 | 274 | 1.0 | 1.0 | 0.00 | 0.00 | 0.00 | 77 | 1000.0 |
| 20260510075817 | 57 | 281 | 0.0 | 1.0 | 0.00 | 0.00 | 0.00 | 78 | 999.8 |
| 20260510075314 | 57 | 277 | 0.0 | 1.0 | 0.00 | 0.00 | 0.00 | 80 | 999.8 |
| 20260510074810 | 57 | 282 | 0.0 | 0.0 | 0.00 | 0.00 | 0.00 | 78 | 1000.0 |
| 20260510074307 | 58 | 274 | 1.0 | 1.0 | 0.00 | 0.00 | 0.00 | 78 | 1000.1 |
| 20260510073758 | 58 | 280 | 1.0 | 1.0 | 0.00 | 0.00 | 0.00 | 78 | 1000.3 |
| 20260510073254 | 58 | 282 | 2.0 | 2.0 | 0.00 | 0.00 | 0.00 | 78 | 1000.4 |
| 20260510072750 | 58 | 252 | 2.0 | 3.0 | 0.00 | 0.00 | 0.00 | 79 | 1000.3 |
| 20260510072247 | 58 | 284 | 1.0 | 2.0 | 0.00 | 0.00 | 0.00 | 78 | 1000.3 |
| 20260510071743 | 58 | 280 | 1.0 | 1.0 | 0.00 | 0.00 | 0.00 | 79 | 1000.0 |
| 20260510071240 | 59 | 284 | 0.0 | 0.0 | 0.00 | 0.00 | 0.00 | 76 | 999.8 |
| 20260510070738 | 59 | 272 | 0.0 | 0.0 | 0.00 | 0.00 | 0.00 | 75 | 1000.0 |
| 20260510070234 | 60 | 278 | 1.0 | 1.0 | 0.00 | 0.00 | 0.00 | 75 | 1000.1 |
| 20260510065729 | 60 | 283 | 1.0 | 1.0 | 0.00 | 0.00 | 0.00 | 74 | 1000.4 |
| 20260510065226 | 60 | 253 | 1.0 | 2.0 | 0.00 | 0.00 | 0.00 | 74 | 1000.0 |
| 20260510064722 | 60 | 270 | 1.0 | 1.0 | 0.00 | 0.00 | 0.00 | 74 | 1000.0 |
| 20260510064220 | 61 | 273 | 1.0 | 1.0 | 0.00 | 0.00 | 0.00 | 73 | 1000.1 |
| 20260510063717 | 61 | 246 | 2.0 | 2.0 | 0.00 | 0.00 | 0.00 | 72 | 999.9 |
| 20260510063213 | 62 | 280 | 0.0 | 1.0 | 0.00 | 0.00 | 0.00 | 71 | 999.9 |
| 20260510062710 | 62 | 284 | 3.0 | 6.0 | 0.00 | 0.00 | 0.00 | 70 | 1000.1 |
| 20260510062206 | 62 | 244 | 3.0 | 3.0 | 0.00 | 0.00 | 0.00 | 71 | 1000.3 |
| 20260510061701 | 62 | 296 | 3.0 | 4.0 | 0.00 | 0.00 | 0.00 | 70 | 1000.1 |
| 20260510061158 | 62 | 306 | 2.0 | 2.0 | 0.00 | 0.00 | 0.00 | 73 | 1000.3 |
| 20260510060654 | 61 | 301 | 5.0 | 8.0 | 0.00 | 0.00 | 0.00 | 75 | 1000.4 |
| 20260510060151 | 61 | 275 | 2.0 | 3.0 | 0.00 | 0.00 | 0.00 | 77 | 1000.5 |
| 20260510055647 | 61 | 261 | 3.0 | 3.0 | 0.00 | 0.00 | 0.00 | 77 | 1000.5 |
| 20260510055145 | 61 | 271 | 2.0 | 3.0 | 0.00 | 0.00 | 0.00 | 77 | 1000.5 |
| 20260510054641 | 61 | 282 | 3.0 | 3.0 | 0.00 | 0.00 | 0.00 | 76 | 1000.5 |
| 20260510054137 | 60 | 290 | 2.0 | 3.0 | 0.00 | 0.00 | 0.00 | 77 | 1000.5 |
| 20260510053636 | 60 | 279 | 1.0 | 2.0 | 0.00 | 0.00 | 0.00 | 77 | 1000.5 |
| 20260510053133 | 60 | 255 | 1.0 | 1.0 | 0.00 | 0.00 | 0.00 | 77 | 1000.3 |
| 20260510052629 | 60 | 275 | 1.0 | 1.0 | 0.00 | 0.00 | 0.00 | 77 | 1000.1 |
| 20260510052125 | 60 | 293 | 1.0 | 2.0 | 0.00 | 0.00 | 0.00 | 78 | 1000.3 |
| 20260510051620 | 60 | 271 | 1.0 | 1.0 | 0.00 | 0.00 | 0.00 | 78 | 1000.1 |
| 20260510051118 | 60 | 279 | 0.0 | 0.0 | 0.00 | 0.00 | 0.00 | 78 | 1000.1 |
| 20260510050615 | 60 | 278 | 0.0 | 0.0 | 0.00 | 0.00 | 0.00 | 77 | 999.9 |
| 20260510050112 | 60 | 274 | 0.0 | 1.0 | 0.00 | 0.00 | 0.00 | 77 | 999.9 |
| 20260510045609 | 60 | 278 | 1.0 | 1.0 | 0.00 | 0.00 | 0.00 | 77 | 1000.1 |
| 20260510045105 | 60 | 293 | 1.0 | 1.0 | 0.00 | 0.00 | 0.00 | 77 | 1000.0 |
| 20260510044602 | 60 | 290 | 2.0 | 2.0 | 0.00 | 0.00 | 0.00 | 76 | 999.7 |
| 20260510044059 | 59 | 287 | 2.0 | 3.0 | 0.00 | 0.00 | 0.00 | 77 | 999.5 |
| 20260510043555 | 59 | 282 | 1.0 | 2.0 | 0.00 | 0.00 | 0.00 | 77 | 999.7 |
| 20260510043051 | 59 | 275 | 1.0 | 1.0 | 0.00 | 0.00 | 0.00 | 77 | 999.6 |
| 20260510042550 | 59 | 288 | 1.0 | 1.0 | 0.00 | 0.00 | 0.00 | 77 | 999.8 |
| 20260510042045 | 59 | 278 | 1.0 | 1.0 | 0.00 | 0.00 | 0.00 | 76 | 999.6 |
| 20260510041542 | 60 | 284 | 2.0 | 2.0 | 0.00 | 0.00 | 0.00 | 76 | 999.6 |
| 20260510041040 | 60 | 290 | 1.0 | 2.0 | 0.00 | 0.00 | 0.00 | 75 | 999.6 |
| 20260510040536 | 60 | 283 | 1.0 | 2.0 | 0.00 | 0.00 | 0.00 | 75 | 999.5 |
| 20260510040032 | 60 | 288 | 0.0 | 0.0 | 0.00 | 0.30 | 0.30 | 75 | 999.5 |
| 20260510035529 | 60 | 280 | 1.0 | 1.0 | 0.00 | 0.30 | 0.30 | 75 | 999.3 |
| 20260510035028 | 60 | 279 | 1.0 | 2.0 | 0.00 | 0.30 | 0.30 | 74 | 999.5 |
| 20260510034527 | 61 | 292 | 1.0 | 1.0 | 0.00 | 0.30 | 0.30 | 74 | 999.3 |
| 20260510034023 | 61 | 323 | 1.0 | 2.0 | 0.00 | 0.30 | 0.30 | 73 | 999.4 |
| 20260510033514 | 61 | 297 | 2.0 | 3.0 | 0.00 | 0.30 | 0.30 | 73 | 999.3 |
| 20260510033012 | 61 | 253 | 2.0 | 2.0 | 0.00 | 0.30 | 0.30 | 73 | 999.3 |
| 20260510032508 | 61 | 277 | 1.0 | 1.0 | 0.00 | 0.30 | 0.30 | 73 | 999.3 |
| 20260510032003 | 61 | 281 | 1.0 | 1.0 | 0.00 | 0.30 | 0.30 | 73 | 999.2 |
| 20260510031458 | 61 | 276 | 0.0 | 1.0 | 0.00 | 0.30 | 0.30 | 73 | 999.2 |
| 20260510030954 | 61 | 283 | 1.0 | 1.0 | 0.00 | 0.30 | 0.30 | 72 | 999.1 |
| 20260510030450 | 62 | 281 | 1.0 | 1.0 | 0.00 | 0.30 | 0.30 | 72 | 999.1 |
| 20260510025947 | 62 | 279 | 1.0 | 1.0 | 0.00 | 0.30 | 0.30 | 71 | 999.1 |
| 20260510025445 | 62 | 285 | 1.0 | 2.0 | 0.00 | 0.30 | 0.30 | 70 | 999.1 |
| 20260510024942 | 62 | 277 | 1.0 | 1.0 | 0.00 | 0.30 | 0.30 | 70 | 999.2 |
| 20260510024438 | 63 | 276 | 1.0 | 1.0 | 0.00 | 0.30 | 0.30 | 69 | 999.3 |
| 20260510023934 | 62 | 282 | 1.0 | 1.0 | 0.00 | 0.30 | 0.30 | 69 | 999.1 |
| 20260510023431 | 62 | 277 | 0.0 | 0.0 | 0.00 | 0.30 | 0.30 | 69 | 999.1 |
| 20260510022928 | 63 | 282 | 1.0 | 1.0 | 0.00 | 0.30 | 0.30 | 69 | 998.9 |
| 20260510022427 | 63 | 281 | 1.0 | 1.0 | 0.00 | 0.30 | 0.30 | 68 | 999.0 |
| 20260510021926 | 63 | 275 | 1.0 | 2.0 | 0.00 | 0.30 | 0.30 | 68 | 998.9 |
| 20260510021424 | 63 | 281 | 1.0 | 1.0 | 0.00 | 0.30 | 0.30 | 68 | 998.9 |
| 20260510020921 | 63 | 282 | 1.0 | 1.0 | 0.00 | 0.30 | 0.30 | 67 | 998.9 |
| 20260510020415 | 64 | 276 | 0.0 | 0.0 | 0.00 | 0.30 | 0.30 | 66 | 998.8 |
| 20260510015911 | 64 | 288 | 1.0 | 1.0 | 0.00 | 0.30 | 0.30 | 65 | 998.7 |
| 20260510015407 | 64 | 277 | 2.0 | 3.0 | 0.00 | 0.30 | 0.30 | 65 | 998.6 |
| 20260510014857 | 64 | 289 | 1.0 | 2.0 | 0.00 | 0.30 | 0.30 | 65 | 998.5 |
| 20260510014356 | 65 | 279 | 2.0 | 2.0 | 0.00 | 0.30 | 0.30 | 64 | 998.6 |
| 20260510013851 | 65 | 292 | 2.0 | 3.0 | 0.00 | 0.30 | 0.30 | 64 | 998.2 |
| 20260510013347 | 65 | 291 | 1.0 | 1.0 | 0.00 | 0.30 | 0.30 | 63 | 998.2 |
| 20260510012841 | 65 | 293 | 1.0 | 1.0 | 0.00 | 0.30 | 0.30 | 63 | 998.3 |
| 20260510012341 | 65 | 280 | 2.0 | 2.0 | 0.00 | 0.30 | 0.30 | 62 | 998.2 |
| 20260510011836 | 65 | 283 | 1.0 | 1.0 | 0.00 | 0.30 | 0.30 | 63 | 997.9 |
| 20260510011331 | 66 | 280 | 2.0 | 2.0 | 0.00 | 0.30 | 0.30 | 62 | 997.9 |
| 20260510010828 | 66 | 280 | 2.0 | 2.0 | 0.00 | 0.30 | 0.30 | 62 | 998.1 |
| 20260510010326 | 66 | 286 | 1.0 | 1.0 | 0.00 | 0.30 | 0.30 | 61 | 998.0 |
| 20260510005822 | 66 | 270 | 2.0 | 2.0 | 0.00 | 0.30 | 0.30 | 61 | 998.0 |
| 20260510005319 | 66 | 282 | 1.0 | 1.0 | 0.00 | 0.30 | 0.30 | 60 | 998.0 |
| 20260510004816 | 67 | 299 | 2.0 | 3.0 | 0.00 | 0.30 | 0.30 | 59 | 997.9 |
| 20260510004314 | 67 | 295 | 3.0 | 3.0 | 0.00 | 0.30 | 0.30 | 59 | 997.7 |
| 20260510003811 | 67 | 221 | 3.0 | 3.0 | 0.00 | 0.30 | 0.30 | 59 | 997.9 |
| 20260510003308 | 67 | 289 | 2.0 | 3.0 | 0.00 | 0.30 | 0.30 | 59 | 997.6 |
| 20260510002806 | 67 | 277 | 4.0 | 4.0 | 0.00 | 0.30 | 0.30 | 58 | 997.6 |
| 20260510002306 | 68 | 278 | 2.0 | 2.0 | 0.00 | 0.30 | 0.30 | 58 | 997.5 |
| 20260510001800 | 68 | 307 | 4.0 | 7.0 | 0.00 | 0.30 | 0.30 | 58 | 997.4 |
| 20260510001259 | 68 | 280 | 2.0 | 2.0 | 0.00 | 0.30 | 0.30 | 57 | 997.3 |
| 20260510000754 | 68 | 305 | 2.0 | 3.0 | 0.00 | 0.30 | 0.30 | 56 | 997.4 |
| 20260510000252 | 69 | 298 | 2.0 | 3.0 | 0.00 | 0.30 | 0.30 | 57 | 997.1 |
| 20260509235749 | 69 | 285 | 2.0 | 3.0 | 0.00 | 0.30 | 0.30 | 55 | 997.3 |
| 20260509235245 | 69 | 286 | 1.0 | 2.0 | 0.00 | 0.30 | 0.30 | 55 | 997.3 |
| 20260509234741 | 69 | 249 | 4.0 | 6.0 | 0.00 | 0.30 | 0.30 | 54 | 997.2 |
| 20260509234238 | 69 | 218 | 5.0 | 7.0 | 0.00 | 0.30 | 0.30 | 53 | 997.1 |
| 20260509233737 | 69 | 256 | 5.0 | 8.0 | 0.00 | 0.30 | 0.30 | 54 | 997.2 |
| 20260509233234 | 70 | 267 | 3.0 | 4.0 | 0.00 | 0.30 | 0.30 | 54 | 997.1 |
| 20260509232729 | 70 | 268 | 3.0 | 3.0 | 0.00 | 0.30 | 0.30 | 54 | 997.1 |
| 20260509232227 | 70 | 282 | 1.0 | 2.0 | 0.00 | 0.30 | 0.30 | 53 | 997.1 |
| 20260509231723 | 70 | 266 | 2.0 | 2.0 | 0.00 | 0.30 | 0.30 | 54 | 997.0 |
| 20260509231220 | 71 | 282 | 4.0 | 4.0 | 0.00 | 0.30 | 0.30 | 53 | 997.0 |
| 20260509230718 | 71 | 223 | 2.0 | 4.0 | 0.00 | 0.30 | 0.30 | 53 | 997.1 |
| 20260509230214 | 71 | 318 | 4.0 | 6.0 | 0.00 | 0.30 | 0.30 | 54 | 996.9 |
| 20260509225710 | 71 | 293 | 5.0 | 7.0 | 0.00 | 0.30 | 0.30 | 53 | 996.8 |
| 20260509225206 | 71 | 329 | 7.0 | 9.0 | 0.00 | 0.30 | 0.30 | 53 | 997.1 |
| 20260509224657 | 71 | 292 | 3.0 | 3.0 | 0.00 | 0.30 | 0.30 | 53 | 996.9 |
| 20260509224154 | 72 | 273 | 5.0 | 6.0 | 0.00 | 0.30 | 0.30 | 53 | 997.0 |
| 20260509223650 | 72 | 261 | 6.0 | 7.0 | 0.00 | 0.30 | 0.30 | 54 | 996.9 |
| 20260509223147 | 72 | 262 | 3.0 | 3.0 | 0.00 | 0.30 | 0.30 | 53 | 996.9 |
| 20260509222644 | 72 | 308 | 4.0 | 6.0 | 0.00 | 0.30 | 0.30 | 52 | 997.0 |
| 20260509222139 | 72 | 268 | 1.0 | 2.0 | 0.00 | 0.30 | 0.30 | 54 | 996.9 |
| 20260509221636 | 72 | 330 | 4.0 | 6.0 | 0.00 | 0.30 | 0.30 | 54 | 996.9 |
| 20260509221131 | 72 | 304 | 2.0 | 3.0 | 0.00 | 0.30 | 0.30 | 55 | 996.9 |
| 20260509220628 | 72 | 290 | 6.0 | 9.0 | 0.00 | 0.30 | 0.30 | 54 | 997.0 |
| 20260509220124 | 72 | 298 | 3.0 | 3.0 | 0.00 | 0.30 | 0.30 | 54 | 997.1 |
| 20260509215621 | 72 | 269 | 3.0 | 7.0 | 0.00 | 0.30 | 0.30 | 54 | 997.1 |
| 20260509215117 | 73 | 264 | 6.0 | 7.0 | 0.00 | 0.30 | 0.30 | 55 | 997.1 |
| 20260509214614 | 73 | 283 | 2.0 | 3.0 | 0.00 | 0.30 | 0.30 | 55 | 997.2 |
| 20260509214111 | 73 | 337 | 3.0 | 3.0 | 0.00 | 0.30 | 0.30 | 55 | 997.1 |
| 20260509213607 | 72 | 312 | 3.0 | 3.0 | 0.00 | 0.30 | 0.30 | 57 | 997.1 |
| 20260509213104 | 72 | 225 | 4.0 | 6.0 | 0.00 | 0.30 | 0.30 | 55 | 997.1 |
| 20260509212602 | 72 | 296 | 3.0 | 3.0 | 0.00 | 0.30 | 0.30 | 57 | 997.1 |
| 20260509212058 | 72 | 269 | 3.0 | 4.0 | 0.00 | 0.30 | 0.30 | 56 | 997.3 |
| 20260509211554 | 71 | 252 | 6.0 | 7.0 | 0.00 | 0.30 | 0.30 | 56 | 997.2 |
| 20260509211051 | 71 | 271 | 3.0 | 4.0 | 0.00 | 0.30 | 0.30 | 56 | 997.2 |
| 20260509210547 | 70 | 295 | 3.0 | 4.0 | 0.00 | 0.30 | 0.30 | 57 | 997.2 |
| 20260509210044 | 73 | 267 | 0.0 | 1.0 | 0.00 | 0.30 | 0.30 | 56 | 997.3 |
| 20260509205538 | 73 | 301 | 2.0 | 3.0 | 0.00 | 0.30 | 0.30 | 53 | 997.3 |
| 20260509205034 | 71 | 292 | 2.0 | 2.0 | 0.00 | 0.30 | 0.30 | 57 | 997.2 |
| 20260509204530 | 72 | 278 | 4.0 | 4.0 | 0.00 | 0.30 | 0.30 | 56 | 997.4 |
| 20260509204027 | 72 | 9 | 4.0 | 6.0 | 0.00 | 0.30 | 0.30 | 57 | 997.4 |
| 20260509203522 | 72 | 286 | 3.0 | 4.0 | 0.00 | 0.30 | 0.30 | 57 | 997.4 |
| 20260509203021 | 71 | 160 | 3.0 | 3.0 | 0.00 | 0.30 | 0.30 | 57 | 997.3 |
| 20260509202515 | 71 | 287 | 1.0 | 2.0 | 0.00 | 0.30 | 0.30 | 59 | 997.4 |
| 20260509202011 | 72 | 282 | 6.0 | 8.0 | 0.00 | 0.30 | 0.30 | 55 | 997.5 |
| 20260509201506 | 72 | 279 | 2.0 | 2.0 | 0.00 | 0.30 | 0.30 | 60 | 997.4 |
| 20260509201004 | 71 | 271 | 1.0 | 2.0 | 0.00 | 0.30 | 0.30 | 60 | 997.5 |
| 20260509200504 | 69 | 311 | 6.0 | 9.0 | 0.00 | 0.30 | 0.30 | 58 | 997.7 |
| 20260509200000 | 71 | 277 | 6.0 | 8.0 | 0.00 | 0.30 | 0.30 | 56 | 997.7 |
| 20260509195455 | 70 | 296 | 5.0 | 8.0 | 0.00 | 0.30 | 0.30 | 56 | 997.9 |
| 20260509194950 | 70 | 296 | 2.0 | 3.0 | 0.00 | 0.30 | 0.30 | 60 | 997.8 |
| 20260509194446 | 70 | 240 | 5.0 | 7.0 | 0.00 | 0.30 | 0.30 | 58 | 997.9 |
| 20260509193943 | 70 | 239 | 6.0 | 7.0 | 0.00 | 0.30 | 0.30 | 59 | 997.9 |
| 20260509193443 | 70 | 269 | 3.0 | 6.0 | 0.00 | 0.30 | 0.30 | 61 | 998.0 |
| 20260509192939 | 70 | 275 | 5.0 | 7.0 | 0.00 | 0.30 | 0.30 | 58 | 998.1 |
| 20260509192436 | 70 | 268 | 3.0 | 3.0 | 0.00 | 0.30 | 0.30 | 63 | 997.8 |
| 20260509191931 | 69 | 274 | 4.0 | 6.0 | 0.00 | 0.30 | 0.30 | 60 | 997.9 |
| 20260509191426 | 69 | 86 | 6.0 | 9.0 | 0.00 | 0.30 | 0.30 | 62 | 998.2 |
| 20260509190922 | 68 | 16 | 4.0 | 4.0 | 0.00 | 0.30 | 0.30 | 64 | 998.2 |
| 20260509190420 | 69 | 263 | 4.0 | 4.0 | 0.00 | 0.30 | 0.30 | 59 | 998.3 |
| 20260509185918 | 69 | 40 | 3.0 | 6.0 | 0.00 | 0.30 | 0.30 | 63 | 998.3 |
| 20260509185415 | 68 | 290 | 2.0 | 3.0 | 0.00 | 0.30 | 0.30 | 68 | 998.3 |
| 20260509184911 | 67 | 274 | 1.0 | 2.0 | 0.00 | 0.30 | 0.30 | 67 | 998.3 |
| 20260509184409 | 68 | 260 | 4.0 | 6.0 | 0.00 | 0.30 | 0.30 | 66 | 998.2 |
| 20260509183905 | 68 | 288 | 2.0 | 3.0 | 0.00 | 0.30 | 0.30 | 68 | 998.2 |
| 20260509183400 | 69 | 54 | 4.0 | 6.0 | 0.00 | 0.30 | 0.30 | 66 | 998.3 |
| 20260509182856 | 68 | 284 | 2.0 | 3.0 | 0.00 | 0.30 | 0.30 | 67 | 998.3 |
| 20260509182353 | 66 | 291 | 2.0 | 2.0 | 0.00 | 0.30 | 0.30 | 70 | 998.3 |
| 20260509181850 | 67 | 287 | 1.0 | 2.0 | 0.00 | 0.30 | 0.30 | 68 | 998.5 |
| 20260509181348 | 68 | 357 | 5.0 | 8.0 | 0.00 | 0.30 | 0.30 | 68 | 998.2 |
| 20260509180845 | 68 | 239 | 5.0 | 7.0 | 0.00 | 0.30 | 0.30 | 67 | 998.5 |
| 20260509180341 | 66 | 310 | 4.0 | 6.0 | 0.00 | 0.30 | 0.30 | 71 | 998.6 |
| 20260509175838 | 67 | 291 | 3.0 | 3.0 | 0.00 | 0.30 | 0.30 | 70 | 998.6 |
| 20260509175334 | 66 | 322 | 5.0 | 9.0 | 0.00 | 0.30 | 0.30 | 70 | 998.8 |
| 20260509174830 | 68 | 332 | 4.0 | 6.0 | 0.00 | 0.30 | 0.30 | 69 | 998.7 |
| 20260509174326 | 67 | 276 | 2.0 | 3.0 | 0.00 | 0.30 | 0.30 | 72 | 998.7 |
| 20260509173822 | 66 | 268 | 3.0 | 3.0 | 0.00 | 0.30 | 0.30 | 70 | 998.5 |
| 20260509173317 | 67 | 286 | 4.0 | 4.0 | 0.00 | 0.30 | 0.30 | 70 | 998.8 |
| 20260509172813 | 66 | 273 | 3.0 | 4.0 | 0.00 | 0.30 | 0.30 | 73 | 998.8 |
| 20260509172310 | 64 | 259 | 5.0 | 8.0 | 0.00 | 0.30 | 0.30 | 74 | 999.0 |
| 20260509171806 | 65 | 289 | 5.0 | 7.0 | 0.00 | 0.30 | 0.30 | 73 | 998.9 |
| 20260509171302 | 65 | 24 | 6.0 | 7.0 | 0.00 | 0.30 | 0.30 | 71 | 998.9 |
| 20260509170759 | 65 | 286 | 3.0 | 4.0 | 0.00 | 0.30 | 0.30 | 75 | 998.7 |
| 20260509170255 | 64 | 293 | 2.0 | 2.0 | 0.00 | 0.30 | 0.30 | 74 | 998.7 |
| 20260509165754 | 65 | 275 | 2.0 | 3.0 | 0.00 | 0.30 | 0.30 | 75 | 998.8 |
| 20260509165249 | 64 | 6 | 1.0 | 1.0 | 0.00 | 0.30 | 0.30 | 78 | 998.7 |
| 20260509164745 | 63 | 306 | 3.0 | 3.0 | 0.00 | 0.30 | 0.30 | 76 | 998.8 |
| 20260509164241 | 62 | 278 | 3.0 | 3.0 | 0.00 | 0.30 | 0.30 | 77 | 999.0 |